This is the latest recevied weather packets stored in our database for station/object KV4OP. If no packets are shown the sender has not sent any weather packets the latest 10 day(s).
| Time | Temp. | Humidity | Pressure | Rain* | Wind** | Luminosity | Snow |
|---|---|---|---|---|---|---|---|
| 1777467334 | 22.22° C | 88% | 1018.6 hPa | 0 mm | - | - | - |
| 1777466129 | 21.11° C | 90% | 1018.3 hPa | 0 mm | - | - | - |
| 1777465225 | 20.56° C | 90% | 1018 hPa | 0 mm | - | - | - |
| 1777464623 | 20° C | 90% | 1017.8 hPa | 0 mm | - | - | - |
| 1777462521 | 18.33° C | 91% | 1017.5 hPa | 0 mm | - | - | - |
| 1777462231 | 17.78° C | 90% | 1017.5 hPa | 0 mm | - | - | - |
| 1777461620 | 17.78° C | 90% | 1017.1 hPa | 0 mm | - | - | - |
| 1777461344 | 17.22° C | 90% | 1017.1 hPa | 0 mm | - | - | - |
| 1777459820 | 17.22° C | 90% | 1016.8 hPa | 0 mm | - | - | - |
| 1777459520 | 17.22° C | 90% | 1016.6 hPa | 0 mm | - | - | - |
| 1777458920 | 17.22° C | 90% | 1016.5 hPa | 0 mm | - | - | - |
| 1777458020 | 17.22° C | 90% | 1016.5 hPa | 0 mm | - | - | - |
| 1777457720 | 17.22° C | 90% | 1016.4 hPa | 0 mm | - | - | - |
| 1777457418 | 17.22° C | 90% | 1016.3 hPa | 0 mm | - | - | - |
| 1777457117 | 17.22° C | 90% | 1016.4 hPa | 0 mm | - | - | - |
| 1777455616 | 17.22° C | 90% | 1016.4 hPa | 0 mm | - | - | - |
| 1777455315 | 17.78° C | 90% | 1016.4 hPa | 0 mm | - | - | - |
| 1777455020 | 17.78° C | 90% | 1016.4 hPa | 0 mm | - | - | - |
| 1777454717 | 17.78° C | 90% | 1016.4 hPa | 0 mm | - | - | - |
| 1777454415 | 17.78° C | 90% | 1016.3 hPa | 0 mm | - | - | - |
| 1777454114 | 17.78° C | 90% | 1016.2 hPa | 0 mm | - | - | - |
| 1777453814 | 17.78° C | 90% | 1016.3 hPa | 0 mm | - | - | - |
| 1777453514 | 17.78° C | 90% | 1016.2 hPa | 0 mm | - | - | - |
| 1777453214 | 17.78° C | 90% | 1016.3 hPa | 0 mm | - | - | - |
| 1777452914 | 17.78° C | 90% | 1016.3 hPa | 0 mm | - | - | - |
* Rain latest hour (hover to see other rain measurements)
** Current wind speed in m/s (hover to see current wind gust speed)